DH4SBM Weather Reports


time (UTC)temp
C
wind
direction
speed
KPH
gust
KPH
rain 1hr
cm
rain 24hr
cm
rain mn
cm
humidity
%
barometer
mb
20260505083539 17 292 4.8 9.7 0.00 0.00 0.00 72 1009.9
20260505082539 17 248 1.6 6.4 0.00 0.00 0.00 74 1010.0
20260505081539 17 270 3.2 11.3 0.00 0.00 0.00 74 1010.0
20260505080538 16 270 3.2 8.0 0.00 0.00 0.00 75 1010.1
20260505075538 16 292 4.8 11.3 0.00 0.00 0.00 75 1010.1
20260505074538 16 292 3.2 8.0 0.00 0.00 0.00 76 1010.2
20260505073538 16 292 3.2 6.4 0.00 0.00 0.00 77 1010.2
20260505072539 16 292 4.8 6.4 0.00 0.00 0.00 78 1010.2
20260505071539 15 292 4.8 9.7 0.00 0.00 0.00 78 1010.4
20260505070539 15 45 0.0 4.8 0.00 0.00 0.00 80 1010.7
20260505065539 14 0 0.0 0.0 0.00 0.00 0.00 82 1010.8
20260505064539 14 0 0.0 0.0 0.00 0.00 0.00 83 1010.8
20260505063538 13 0 0.0 0.0 0.00 0.00 0.00 84 1010.7
20260505062538 13 0 0.0 0.0 0.00 0.00 0.00 84 1010.8
20260505061538 13 0 0.0 0.0 0.00 0.00 0.00 84 1010.8
20260505060538 13 0 0.0 0.0 0.00 0.00 0.00 84 1010.8
20260505055538 13 0 0.0 0.0 0.00 0.00 0.00 84 1010.9
20260505054538 13 0 0.0 0.0 0.00 0.00 0.00 84 1010.9
20260505053538 13 0 0.0 0.0 0.00 0.00 0.00 85 1011.0
20260505052538 13 0 0.0 0.0 0.00 0.00 0.00 86 1011.1
20260505051538 13 0 0.0 0.0 0.00 0.00 0.00 86 1011.1
20260505050538 12 0 0.0 0.0 0.00 0.00 0.00 87 1011.0
20260505041538 12 202 1.6 4.8 0.00 0.00 0.00 86 1011.0
20260505040538 12 202 1.6 4.8 0.00 0.00 0.00 86 1011.0
20260505035538 12 202 1.6 4.8 0.00 0.00 0.00 86 1011.0
20260505034538 12 202 1.6 4.8 0.00 0.00 0.00 85 1010.8
20260505033538 12 202 1.6 4.8 0.00 0.00 0.00 85 1010.9
20260505032538 12 202 1.6 3.2 0.00 0.00 0.00 84 1011.1
20260505031538 12 202 1.6 4.8 0.00 0.00 0.00 83 1011.2
20260505030538 13 202 1.6 3.2 0.00 0.00 0.00 83 1011.4
20260505025538 13 202 1.6 3.2 0.00 0.00 0.00 83 1011.5
20260505024538 13 202 3.2 4.8 0.00 0.00 0.00 82 1011.5
20260505023538 13 202 1.6 4.8 0.00 0.00 0.00 82 1011.5
20260505022538 13 202 3.2 4.8 0.00 0.00 0.00 82 1011.7
20260505021538 13 202 1.6 4.8 0.00 0.00 0.00 82 1011.9
20260505020538 13 202 0.0 3.2 0.00 0.00 0.00 82 1012.1
20260505015536 13 202 3.2 4.8 0.00 0.00 0.00 82 1012.2
20260505014536 13 202 3.2 4.8 0.00 0.00 0.00 82 1012.3
20260505013536 13 202 1.6 4.8 0.00 0.00 0.00 81 1012.5
20260505012536 13 202 1.6 4.8 0.00 0.00 0.00 81 1012.5
20260505011536 13 202 1.6 4.8 0.00 0.00 0.00 81 1012.5
20260505010536 13 202 3.2 4.8 0.00 0.00 0.00 80 1012.7
20260505005536 13 202 1.6 4.8 0.00 0.00 0.00 80 1012.7
20260505004536 14 202 0.0 3.2 0.00 0.00 0.00 79 1012.5
20260505003822 14 202 0.0 3.2 0.00 0.00 0.00 79 1012.6
20260505002821 14 202 1.6 4.8 0.00 0.00 0.00 79 1012.6
20260505001822 14 202 1.6 4.8 0.00 0.00 0.00 79 1012.8
20260505000822 14 0 0.0 0.0 0.00 0.00 0.00 79 1012.8
20260504235822 14 0 0.0 0.0 0.00 0.00 0.00 79 1012.7
20260504234821 14 202 1.6 3.2 0.00 0.00 0.00 79 1012.8
20260504233821 14 202 0.0 1.6 0.00 0.00 0.00 79 1013.0
20260504232819 14 0 0.0 0.0 0.00 0.00 0.00 79 1013.2
20260504231819 14 0 0.0 0.0 0.00 0.00 0.00 78 1013.3
20260504230819 14 202 1.6 4.8 0.00 0.00 0.00 79 1013.3
20260504225819 14 202 1.6 4.8 0.00 0.00 0.00 79 1013.4
20260504224819 14 202 1.6 3.2 0.00 0.00 0.00 78 1013.4
20260504223820 14 202 1.6 3.2 0.00 0.00 0.00 78 1013.5
20260504222820 15 202 1.6 3.2 0.00 0.00 0.00 77 1013.5
20260504221820 15 202 3.2 6.4 0.00 0.00 0.00 77 1013.5
20260504220820 15 225 3.2 6.4 0.00 0.00 0.00 76 1013.4
20260504215820 15 225 1.6 4.8 0.00 0.00 0.00 74 1013.4
20260504214820 16 248 1.6 4.8 0.00 0.00 0.00 73 1013.5
20260504213820 16 0 0.0 0.0 0.00 0.00 0.00 70 1013.5
20260504212820 16 0 0.0 0.0 0.00 0.00 0.00 71 1013.6
20260504212536 16 0 0.0 0.0 0.00 0.00 0.00 71 1013.6
20260504211536 16 0 0.0 0.0 0.00 0.00 0.00 70 1013.7
20260504210536 16 0 0.0 0.0 0.00 0.00 0.00 70 1013.8
20260504205536 16 0 0.0 0.0 0.00 0.00 0.00 69 1014.0
20260504204536 16 0 0.0 0.0 0.00 0.00 0.00 69 1013.9
20260504203536 16 270 0.0 3.2 0.00 0.00 0.00 69 1013.9
20260504202536 16 270 0.0 3.2 0.00 0.00 0.00 68 1013.9
20260504201536 16 270 0.0 1.6 0.00 0.00 0.00 68 1014.1
20260504200536 16 270 0.0 3.2 0.00 0.00 0.00 66 1014.1
20260504195536 16 270 0.0 4.8 0.00 0.00 0.00 66 1014.0
20260504194536 17 270 4.8 4.8 0.00 0.00 0.00 60 1013.9
20260504193536 17 270 4.8 4.8 0.00 0.00 0.00 60 1013.8
20260504192534 17 270 4.8 4.8 0.00 0.00 0.00 60 1013.7
20260504191534 17 270 4.8 4.8 0.00 0.00 0.00 60 1013.7
20260504190534 17 270 4.8 4.8 0.00 0.00 0.00 60 1013.6
20260504185534 17 270 4.8 12.9 0.00 0.00 0.00 60 1013.7
20260504184534 17 292 6.4 11.3 0.00 0.00 0.00 59 1013.5
20260504183545 17 315 8.0 14.5 0.00 0.00 0.00 58 1013.6
20260504182545 18 315 8.0 16.1 0.00 0.00 0.00 57 1013.5
20260504181545 18 315 9.7 17.7 0.00 0.00 0.00 57 1013.5
20260504180545 18 315 8.0 19.3 0.00 0.00 0.00 56 1013.5
20260504175545 18 292 8.0 14.5 0.00 0.00 0.00 56 1013.5
20260504174545 18 315 6.4 14.5 0.00 0.00 0.00 55 1013.4
20260504173545 19 315 6.4 12.9 0.00 0.00 0.00 54 1013.3
20260504172545 19 315 6.4 16.1 0.00 0.00 0.00 54 1013.2
20260504171545 19 315 8.0 12.9 0.00 0.00 0.00 53 1013.1
20260504170545 19 315 8.0 14.5 0.00 0.00 0.00 52 1013.1
20260504150545 22 360 6.4 12.9 0.00 0.00 0.00 43 1013.2
20260504140545 22 338 4.8 14.5 0.00 0.00 0.00 44 1014.0
20260504130544 21 315 4.8 9.7 0.00 0.00 0.00 49 1014.4
20260504110544 21 225 3.2 11.3 0.00 0.00 0.00 47 1015.1
20260504100544 21 225 3.2 9.7 0.00 0.00 0.00 45 1015.5